Location: Ar Ranvel
(48.3000°N, 4.8833°W)
Time: 03:08:33
(UTC+00:00)

Cosmos 2322 Rocket - Pass Details

Date: 01 November 2021
Orbit: 832 x 851 km, 71.0° (Epoch: 01 December)

Event Time Altitude Azimuth Distance (km) Brightness Sun altitude
Rises 19:32:47 0° 268° (W) 3,379 6.6 -25.8°
Reaches altitude 10° 19:36:22 10° 291° (WNW) 2,451 5.6 -26.4°
Maximum altitude 19:39:32 15° 326° (NW) 2,118 4.7 -26.9°
Drops below altitude 10° 19:42:43 10° 0° (N) 2,463 4.7 -27.4°
Enters shadow 19:44:50 - 16° (NNE) 2,972 5.0 -27.8°
